Location: Karcze
(52.0945°N, 22.4786°E)
Time: 12:50:19
(UTC+00:00)

IRS-1D - Pass Details

Date: 14 July 2020
Orbit: 739 x 817 km, 98.6° (Epoch: 07 August)

Event Time Altitude Azimuth Distance (km) Brightness Sun altitude
Rises 00:36:57 0° 17° (NNE) 3,202 8.6 -11.7°
Reaches altitude 10° 00:39:18 10° 21° (NNE) 2,268 7.5 -11.5°
Maximum altitude 00:44:13 60° 102° (ESE) 851 3.8 -11.1°
Enters shadow 00:49:01 10° 182° (S) 2,225 5.4 -10.8°
